Regional Weather Roundup
Issued by NWS Midland/Odessa, TX

Skip options and go directly to product.
Home | Oldest Version | Previous Version | Current Version | All | Text Only | Save Text | Print | Product List | Glossary On

Skip product version selection by date and time.   
207
ASUS44 KMAF 020210
RWRMAF
MIDLAND AREA WEATHER ROUNDUP
NATIONAL WEATHER SERVICE MIDLAND TX
900 PM CDT FRI AUG 01 2014

...IN SOUTHWEST TEXAS AND SOUTHEAST NEW MEXICO...

CITY           SKY/WX    TMP DP  RH WIND       PRES   REMARKS
ALPINE         CLOUDY    73  61  66 NE7       30.23R
ANDREWS        FAIR      78  54  43 SE3       30.11R
ARTESIA        CLOUDY    72  64  78 W3        30.14S
BIG SPRING     PTCLDY    84  47  26 E8        30.10R
CARLSBAD       CLOUDY    75  62  64 CALM      30.11S
DRYDEN           N/A     86  62  44 S3        30.02R
FORT STOCKTON  MOCLDY    76  61  59 E6        30.10R
GUAD PASS      CLOUDY    63  60  90 NE28      30.22F
HOBBS          CLOUDY    79  52  38 NE7       30.14S
MARFA          MOCLDY    70  63  78 NE9       30.21R
MIDLAND AIRPK  CLEAR     83  51  33 E3        30.09R
MIDLAND INTL   CLEAR     80  54  40 E5        30.08R
ODESSA         CLEAR     79  55  43 E5        30.09S
PECOS          PTCLDY    80  57  46 SE7       30.06S
PRESIDIO       FAIR      82  64  54 CALM      30.02R
SEMINOLE       CLEAR     79  49  35 NE9       30.13R
SNYDER         PTCLDY    82  52  35 E9        30.08R
WINK           CLOUDY    83  57  41 E12       30.06S
$$
...OTHER STATIONS IN TEXAS...

CITY           SKY/WX    TMP DP  RH WIND       PRES   REMARKS
ABILENE        CLEAR     82  58  43 E9        30.04R
AMARILLO       CLEAR     73  52  47 SE8       30.17R
AUSTIN         PTCLDY    81  65  58 NE10      29.98R
BROWNSVILLE    PTCLDY    84  77  79 SE10      29.92R
CORPUS CHRISTI CLOUDY    85  75  72 SE10      29.92R
DALLAS FTW     MOCLDY    76  65  68 NE8       30.02R
DEL RIO        MOCLDY    90  63  40 W5        29.93R
EL PASO        MOCLDY    74  64  71 E8        30.11R
HOUSTON INT    PTCLDY    78  70  76 N8        29.96R
LUBBOCK        MOCLDY    74  48  39 NE7       30.14R
SAN ANGELO     MOCLDY    81  55  40 E6        30.03R
SAN ANTONIO    PTCLDY    87  63  44 NE9       29.97R
WACO           CLOUDY    78  66  66 E9        30.01R
WICHITA FALLS  NOT AVBL
$$
...OTHER LOCATIONS IN NEW MEXICO...

CITY           SKY/WX    TMP DP  RH WIND       PRES   REMARKS
ALAMAGORDO     MOCLDY    70  66  88 SW3       30.15R
ALBUQUERQUE    MOCLDY    77  55  46 E12       30.19R
CANNON AFB     CLOUDY    73  50  44 E9        30.21R
CLOVIS         NOT AVBL
HOLLOMAN AFB   CLOUDY    70  66  88 SE3       30.13R
ROSWELL        PTCLDY    73  63  70 W5        30.15R
RUIDOSO        CLOUDY    59  55  88 SE3       30.36R
SANTA FE       MOCLDY    67  57  70 S7        30.28R
TRUTH OR CONSE MOCLDY    74  61  63 S12       30.15R
TUCUMCARI      CLOUDY    78  46  32 SE7       30.17S
$$

USA.gov is the U.S. government's official web portal to all federal, state and local government web resources and services.